Radiation Dose at Monitoring Post of Fukushima Daini Nuclear Power Station
Date,Time,MP-1(microSv/h),MP-2(microSv/h),MP-3(microSv/h),MP-4(microSv/h),MP-5(microSv/h),MP-6(microSv/h),MP-7(microSv/h),Wind Direction,Wind Velocity(m/s),Rain
2024/04/23,00:00,0.150,0.132,0.216,0.200,0.210,0.118,0.076,north-northwest,1.9,Yes
2024/04/23,00:10,0.151,0.131,0.216,0.200,0.208,0.117,0.077,north,2.1,Yes
2024/04/23,00:20,0.149,0.131,0.215,0.200,0.209,0.118,0.076,north-northeast,2.1,Yes
2024/04/23,00:30,0.150,0.131,0.215,0.200,0.208,0.117,0.077,north,2.8,Yes
2024/04/23,00:40,0.151,0.131,0.216,0.202,0.209,0.118,0.077,north-northwest,2.6,Yes
2024/04/23,00:50,0.150,0.131,0.216,0.200,0.209,0.117,0.078,northwest,3.5,Yes
2024/04/23,01:00,0.150,0.132,0.216,0.201,0.210,0.117,0.077,north-northwest,2.3,Yes
2024/04/23,01:10,0.149,0.131,0.216,0.200,0.208,0.118,0.077,north-northwest,3.3,Yes
2024/04/23,01:20,0.150,0.131,0.214,0.200,0.209,0.116,0.077,northwest,4.1,Yes
2024/04/23,01:30,0.149,0.130,0.215,0.200,0.208,0.117,0.077,northwest,4.1,No
2024/04/23,01:40,0.150,0.130,0.213,0.199,0.208,0.117,0.076,north-northwest,5.0,No
2024/04/23,01:50,0.149,0.130,0.215,0.200,0.208,0.117,0.077,northwest,4.9,Yes
2024/04/23,02:00,0.149,0.130,0.214,0.199,0.208,0.117,0.076,northwest,4.9,Yes
2024/04/23,02:10,0.149,0.130,0.214,0.200,0.208,0.117,0.076,northwest,5.0,Yes
2024/04/23,02:20,0.149,0.130,0.215,0.199,0.207,0.117,0.076,north-northwest,5.3,Yes
2024/04/23,02:30,0.149,0.131,0.214,0.199,0.209,0.117,0.076,north-northwest,5.6,No
2024/04/23,02:40,0.148,0.129,0.215,0.200,0.207,0.117,0.075,northwest,5.1,No
2024/04/23,02:50,0.150,0.131,0.215,0.198,0.209,0.117,0.076,northwest,5.2,No
2024/04/23,03:00,0.149,0.131,0.215,0.200,0.207,0.118,0.076,northwest,5.1,No
2024/04/23,03:10,0.151,0.130,0.214,0.199,0.208,0.116,0.076,northwest,5.7,No
2024/04/23,03:20,0.149,0.130,0.214,0.200,0.208,0.117,0.077,northwest,5.1,No
2024/04/23,03:30,0.149,0.130,0.216,0.199,0.207,0.117,0.076,north-northwest,5.3,No
2024/04/23,03:40,0.149,0.131,0.214,0.198,0.209,0.116,0.076,north-northwest,5.1,No
2024/04/23,03:50,0.149,0.130,0.214,0.200,0.207,0.116,0.076,northwest,4.7,No
2024/04/23,04:00,0.150,0.131,0.215,0.199,0.209,0.117,0.076,northwest,4.9,No
2024/04/23,04:10,0.149,0.131,0.215,0.200,0.207,0.116,0.076,northwest,4.7,No
2024/04/23,04:20,0.149,0.130,0.215,0.199,0.207,0.116,0.077,northwest,4.6,No
2024/04/23,04:30,0.148,0.130,0.215,0.199,0.207,0.116,0.076,northwest,4.4,No
2024/04/23,04:40,0.149,0.130,0.215,0.198,0.209,0.117,0.077,north-northwest,4.8,No
2024/04/23,04:50,0.149,0.131,0.214,0.198,0.207,0.116,0.076,north-northwest,5.0,No
2024/04/23,05:00,0.149,0.130,0.214,0.199,0.207,0.116,0.077,north-northwest,4.6,No
2024/04/23,05:10,0.149,0.130,0.215,0.199,0.208,0.116,0.076,north-northwest,4.5,No
2024/04/23,05:20,0.148,0.130,0.213,0.200,0.207,0.116,0.077,north-northwest,4.5,No
2024/04/23,05:30,0.149,0.130,0.216,0.200,0.208,0.117,0.076,north-northwest,4.7,No
2024/04/23,05:40,0.149,0.130,0.214,0.199,0.207,0.116,0.077,north-northwest,4.7,No
2024/04/23,05:50,0.150,0.130,0.214,0.200,0.208,0.117,0.077,north-northwest,4.9,No
2024/04/23,06:00,0.147,0.131,0.215,0.200,0.207,0.116,0.076,northwest,4.7,No
2024/04/23,06:10,0.149,0.130,0.214,0.199,0.208,0.116,0.076,northwest,4.8,No
2024/04/23,06:20,0.149,0.130,0.214,0.199,0.207,0.117,0.076,northwest,4.6,No
2024/04/23,06:30,0.150,0.130,0.214,0.200,0.209,0.116,0.076,northwest,4.6,No
2024/04/23,06:40,0.149,0.130,0.215,0.199,0.207,0.116,0.076,northwest,4.2,No
2024/04/23,06:50,0.148,0.131,0.214,0.199,0.208,0.116,0.076,north-northwest,4.5,No
2024/04/23,07:00,0.149,0.129,0.214,0.198,0.207,0.116,0.076,north-northwest,4.1,No
2024/04/23,07:10,0.149,0.130,0.215,0.200,0.208,0.116,0.076,north-northwest,3.9,No
2024/04/23,07:20,0.149,0.129,0.214,0.199,0.207,0.117,0.076,north-northwest,3.1,No
2024/04/23,07:30,0.148,0.131,0.215,0.199,0.207,0.116,0.076,north-northwest,3.2,No
2024/04/23,07:40,0.150,0.130,0.214,0.199,0.209,0.116,0.076,north-northwest,3.2,Yes
2024/04/23,07:50,0.148,0.130,0.214,0.198,0.208,0.117,0.076,north-northwest,3.1,Yes
2024/04/23,08:00,0.149,0.130,0.214,0.200,0.208,0.115,0.077,north-northwest,2.4,Yes
2024/04/23,08:10,0.148,0.130,0.215,0.199,0.207,0.117,0.076,northwest,2.6,Yes
2024/04/23,08:20,0.150,0.131,0.214,0.200,0.208,0.117,0.076,northwest,3.1,Yes
2024/04/23,08:30,0.149,0.130,0.213,0.198,0.207,0.117,0.077,north-northwest,3.6,Yes
2024/04/23,08:40,0.150,0.131,0.215,0.200,0.209,0.116,0.077,north-northwest,3.3,Yes
2024/04/23,08:50,0.148,0.129,0.214,0.199,0.207,0.116,0.077,north-northwest,2.8,Yes
2024/04/23,09:00,0.148,0.131,0.216,0.200,0.208,0.117,0.076,north-northwest,3.3,Yes
2024/04/23,09:10,0.147,0.130,0.213,0.199,0.207,0.117,0.076,north-northwest,2.6,No
2024/04/23,09:20,0.146,0.131,0.214,0.198,0.210,0.117,0.076,north-northwest,3.1,No
2024/04/23,09:30,0.146,0.130,0.214,0.199,0.207,0.117,0.077,north-northwest,2.9,No
2024/04/23,09:40,0.149,0.130,0.215,0.199,0.208,0.117,0.076,northwest,3.2,No
2024/04/23,09:50,-,0.130,0.213,0.198,0.207,0.117,0.076,north-northwest,2.5,No
2024/04/23,10:00,-,0.131,0.215,0.199,0.207,0.117,0.076,north-northwest,2.4,No
2024/04/23,10:10,-,0.130,0.213,0.199,0.208,0.116,0.076,northwest,2.0,No
2024/04/23,10:20,-,0.130,0.215,0.200,0.207,0.116,0.076,north,1.8,No
2024/04/23,10:30,-,0.130,0.214,0.199,0.208,0.117,0.077,northeast,4.7,No
2024/04/23,10:40,-,0.131,0.215,0.200,0.207,0.116,0.076,north-northeast,5.5,No
2024/04/23,10:50,-,0.130,0.213,0.199,0.209,0.116,0.076,north-northeast,6.0,No
2024/04/23,11:00,-,0.131,0.215,0.199,0.206,0.116,0.076,north-northeast,6.1,No
2024/04/23,11:10,-,0.130,0.214,0.199,0.208,0.117,0.075,north-northeast,6.1,No
2024/04/23,11:20,-,0.131,0.214,0.200,0.207,0.116,0.077,north,5.8,No
2024/04/23,11:30,-,0.130,0.216,0.198,0.208,0.117,0.076,north,5.0,No
2024/04/23,11:40,-,0.130,0.214,0.200,0.207,0.116,0.076,north,4.2,No
2024/04/23,11:50,-,0.130,0.215,0.200,0.209,0.116,0.076,north,4.0,No
2024/04/23,12:00,-,0.132,0.215,0.200,0.207,0.117,0.076,north,3.0,No
2024/04/23,12:10,-,0.129,0.215,0.200,0.208,0.117,0.076,north,3.2,Yes
2024/04/23,12:20,-,0.131,0.214,0.200,0.208,0.116,0.076,north,2.4,Yes
2024/04/23,12:30,-,0.130,0.215,0.200,0.208,0.117,0.076,north-northeast,2.5,Yes
2024/04/23,12:40,-,0.130,0.214,0.200,0.208,0.117,0.077,north-northeast,2.0,Yes
2024/04/23,12:50,-,0.131,0.215,0.199,0.208,0.116,0.076,north-northeast,2.1,Yes
2024/04/23,13:00,-,0.130,0.215,0.200,0.207,0.116,0.076,north-northeast,1.9,Yes
2024/04/23,13:10,-,0.130,0.214,0.201,0.209,0.117,0.076,north-northeast,1.7,Yes
2024/04/23,13:20,-,0.131,0.214,0.200,0.208,0.117,0.076,north-northeast,1.4,Yes
2024/04/23,13:30,-,0.130,0.215,0.200,0.209,0.117,0.076,northeast,1.4,Yes
2024/04/23,13:40,-,0.130,0.214,0.199,0.208,0.117,0.076,north-northeast,1.8,Yes
2024/04/23,13:50,-,0.131,0.214,0.199,0.208,0.116,0.075,northeast,2.5,Yes
2024/04/23,14:00,-,0.131,0.217,0.201,0.207,0.116,0.078,north-northeast,2.4,Yes
2024/04/23,14:10,-,0.131,0.214,0.199,0.208,0.117,0.076,north-northeast,2.4,Yes
2024/04/23,14:20,-,0.130,0.216,0.201,0.208,0.116,0.076,northeast,3.0,Yes
2024/04/23,14:30,-,0.131,0.213,0.199,0.209,0.117,0.076,northeast,2.1,Yes
2024/04/23,14:40,-,0.130,0.216,0.202,0.208,0.117,0.076,northeast,2.1,Yes
2024/04/23,14:50,-,0.131,0.215,0.199,0.209,0.118,0.077,north-northeast,1.9,Yes
2024/04/23,15:00,-,0.130,0.215,0.202,0.208,0.117,0.076,-,CALM,Yes
2024/04/23,15:10,-,0.130,0.216,0.200,0.209,0.117,0.076,north,1.4,Yes
2024/04/23,15:20,-,0.130,0.215,0.200,0.208,0.116,0.076,north,0.9,Yes
2024/04/23,15:30,-,0.131,0.217,0.202,0.209,0.117,0.077,north,1.3,Yes
2024/04/23,15:40,-,0.131,0.215,0.200,0.208,0.117,0.077,north-northeast,1.4,Yes
2024/04/23,15:50,-,0.131,0.216,0.201,0.209,0.118,0.077,north-northeast,1.6,Yes
2024/04/23,16:00,-,0.131,0.215,0.199,0.208,0.117,0.077,north-northeast,2.5,Yes
2024/04/23,16:10,-,0.132,0.216,0.200,0.208,0.117,0.078,northeast,2.2,Yes
2024/04/23,16:20,-,0.131,0.215,0.200,0.209,0.117,0.077,north-northeast,1.8,Yes
2024/04/23,16:30,-,0.131,0.214,0.199,0.207,0.118,0.077,north-northwest,0.6,Yes
2024/04/23,16:40,-,0.131,0.217,0.199,0.208,0.117,0.076,east-southeast,0.6,Yes
2024/04/23,16:50,-,0.131,0.214,0.199,0.207,0.117,0.076,northwest,1.7,Yes
2024/04/23,17:00,0.149,0.131,0.215,0.199,0.209,0.117,0.076,north-northwest,0.7,Yes
2024/04/23,17:10,0.149,0.130,0.214,0.199,0.206,0.117,0.077,north-northwest,1.7,Yes
2024/04/23,17:20,0.149,0.131,0.214,0.199,0.208,0.118,0.077,north-northwest,0.9,Yes
2024/04/23,17:30,0.150,0.130,0.216,0.199,0.207,0.118,0.077,north,1.7,Yes
2024/04/23,17:40,0.150,0.131,0.214,0.198,0.207,0.118,0.077,north-northeast,1.8,Yes
2024/04/23,17:50,0.150,0.131,0.215,0.198,0.208,0.116,0.077,north-northeast,1.3,Yes
2024/04/23,18:00,0.149,0.130,0.216,0.198,0.207,0.117,0.077,north,1.7,Yes
2024/04/23,18:10,0.147,0.131,0.214,0.200,0.207,0.116,0.077,northeast,3.2,Yes
2024/04/23,18:20,0.149,0.131,0.214,0.199,0.207,0.117,0.078,northeast,2.2,Yes
2024/04/23,18:30,0.149,0.130,0.214,0.200,0.209,0.116,0.077,north-northwest,2.1,Yes
2024/04/23,18:40,0.150,0.131,0.214,0.198,0.207,0.117,0.076,northwest,2.5,Yes
2024/04/23,18:50,0.149,0.131,0.214,0.200,0.209,0.117,0.077,northwest,3.0,Yes
2024/04/23,19:00,0.149,0.130,0.213,0.199,0.208,0.117,0.077,northwest,2.8,Yes
2024/04/23,19:10,0.149,0.130,0.215,0.198,0.209,0.117,0.077,northwest,2.6,Yes
2024/04/23,19:20,0.149,0.130,0.214,0.200,0.208,0.118,0.077,northeast,1.9,Yes
2024/04/23,19:30,0.149,0.130,0.214,0.198,0.206,0.118,0.076,north-northwest,2.0,Yes
2024/04/23,19:40,0.148,0.130,0.215,0.199,0.209,0.118,0.077,north-northwest,1.4,Yes
2024/04/23,19:50,0.149,0.130,0.213,0.199,0.207,0.117,0.076,north-northwest,2.1,Yes
2024/04/23,20:00,0.149,0.130,0.214,0.197,0.208,0.118,0.076,north-northeast,1.3,Yes
2024/04/23,20:10,0.149,0.131,0.214,0.199,0.208,0.116,0.076,east,3.6,Yes
2024/04/23,20:20,0.148,0.131,0.212,0.198,0.207,0.117,0.076,east-northeast,2.4,Yes
2024/04/23,20:30,0.148,0.129,0.213,0.197,0.208,0.116,0.076,east,3.1,Yes
2024/04/23,20:40,0.148,0.130,0.212,0.198,0.206,0.116,0.076,east-northeast,3.8,Yes
2024/04/23,20:50,0.148,0.129,0.210,0.197,0.208,0.117,0.076,east,4.5,Yes
2024/04/23,21:00,0.149,0.130,0.213,0.196,0.205,0.116,0.075,east,4.8,Yes
2024/04/23,21:10,0.148,0.130,0.212,0.196,0.206,0.116,0.077,east,1.8,Yes
2024/04/23,21:20,0.148,0.130,0.212,0.196,0.205,0.116,0.076,east,1.0,Yes
2024/04/23,21:30,0.147,0.130,0.212,0.197,0.207,0.116,0.075,east,2.0,Yes
2024/04/23,21:40,0.149,0.129,0.210,0.195,0.206,0.116,0.076,east-southeast,3.5,Yes
2024/04/23,21:50,0.149,0.129,0.212,0.196,0.205,0.116,0.076,east,1.9,Yes
2024/04/23,22:00,0.148,0.130,0.210,0.195,0.206,0.116,0.076,northeast,1.2,Yes
2024/04/23,22:10,0.148,0.129,0.210,0.196,0.205,0.116,0.076,east,2.0,Yes
2024/04/23,22:20,0.148,0.129,0.211,0.195,0.206,0.116,0.076,-,CALM,Yes
2024/04/23,22:30,0.149,0.130,0.210,0.196,0.204,0.116,0.076,east,1.3,Yes
2024/04/23,22:40,0.147,0.130,0.211,0.196,0.206,0.116,0.076,northwest,1.2,Yes
2024/04/23,22:50,0.148,0.130,0.212,0.196,0.206,0.117,0.077,north-northwest,0.7,Yes
2024/04/23,23:00,0.147,0.129,0.210,0.195,0.206,0.116,0.075,west-northwest,1.4,Yes
2024/04/23,23:10,0.149,0.130,0.212,0.195,0.205,0.116,0.077,west-northwest,1.3,Yes
2024/04/23,23:20,0.148,0.130,0.211,0.195,0.205,0.116,0.075,north,0.8,Yes
2024/04/23,23:30,0.149,0.129,0.211,0.196,0.206,0.117,0.076,-,CALM,Yes
2024/04/23,23:40,0.149,0.129,0.212,0.197,0.203,0.116,0.076,north,0.6,Yes
2024/04/23,23:50,0.148,0.130,0.212,0.196,0.208,0.117,0.077,northeast,0.8,Yes
